Location: Unspecified
(44.4377°N, 88.0525°W)
Time: 22:13:15
(UTC-06:00)

CZ-3 Stage 3 - Visible Passes

Search period start: 14 November 2018 00:00
Search period end: 24 November 2018 00:00
Orbit: 378 x 34814 km, 30.3° (Epoch: 13 November)

Date Brightness Start Highest point End Pass type
(mag) Time Alt. Az. Time Alt. Az. Time Alt. Az.
14 Nov 8.2 15:09:52 10° SW 17:46:24 59° WSW 00:00:50 33° SW visible
15 Nov 8.0 11:30:50 10° S 18:00:46 71° SSE 20:33:10 37° SE visible
16 Nov 8.5 09:33:55 10° ENE 14:50:24 33° E 16:51:05 10° E visible
16 Nov 9.8 19:21:51 10° W 21:01:42 20° WNW 00:23:13 10° WNW visible
17 Nov 8.1 14:59:26 10° SW 17:34:56 60° WSW 23:53:35 31° SW visible
18 Nov 7.9 11:20:22 10° S 17:48:32 70° SSE 20:25:58 33° SE visible
19 Nov 9.9 19:10:02 10° W 20:50:53 20° WNW 00:16:01 10° WNW visible
20 Nov 8.0 14:49:01 10° SW 17:23:26 60° WSW 23:46:27 29° SW visible
21 Nov 7.9 11:09:55 10° S 17:36:22 70° SSE 20:18:51 28° SE visible
22 Nov 9.9 18:58:16 10° W 20:40:01 21° WNW 00:08:20 10° WNW visible
23 Nov 7.9 14:38:36 10° WSW 17:11:56 61° WSW 23:39:39 26° SW visible
